[[{"header":{"parameterUnit":"m.s-1","parameterCategory":1,"la1":30.2991,"la2":30.254,"lo1":-89.0895,"lo2":-89.0444,"dy":0.0017,"dx":0.0017,"nx":28,"ny":28,"refTime":"2025-09-13T21:00:00:Z","depth":0,"parameterNumber":2,"parameterNumberName":"U-component_of_WINDS"},"data":[0,0,0,0,0,0,0,0,0,0,0,0,0,0,0,0,0,0,0,0,0,0,0,0,0,0,0,0,0,0,0,0,0,0,0,0,0,0,0,0,0,0,0,0,0,0,0,0,0,0,0,0,0,0,0,0,0,0,-0.8994,-0.8994,0,-0.8999,-0.8999,-0.9,-0.8973,-0.8972,-0.8971,-0.8971,-0.8975,-0.8976,-0.8977,0,0,0,0,0,0,0,0,0,0,0,0,0,-0.8959,-0.896,-0.8994,-0.8994,-0.8994,-0.8999,-0.8999,-0.9,-0.8973,-0.8972,-0.8971,-0.897,-0.8975,-0.8976,-0.8977,0,0,0,0,0,0,0,0,0,0,0,0,0,-0.897,-0.896,-0.8994,-0.8981,-0.898,-0.8999,-0.8999,-0.9,-0.8973,-0.8972,-0.8971,-0.897,-0.8975,-0.8976,-0.8977,-0.9008,0,0,-0.8981,-0.8982,0,0,0,0,0,0,0,0,-0.897,-0.8972,-0.8983,-0.8982,-0.8981,-0.8984,-0.8989,-0.9002,-0.8973,-0.8976,-0.8971,-0.8969,-0.8979,-0.898,-0.8983,-0.9008,-0.9009,-0.8981,-0.8982,-0.8982,-0.8983,0,0,0,0,0,0,0,-0.8969,-0.8971,-0.8996,-0.8983,-0.8982,-0.8975,-0.8975,-0.8991,-0.8984,-0.8975,-0.8974,-0.8975,-0.8978,-0.8982,-0.8983,-0.9009,-0.8981,-0.8982,-0.8983,-0.8983,-0.906,-0.9061,0,0,0,0,0,0,-0.897,-0.8971,-0.8996,-0.8996,-0.8972,-0.8977,-0.8977,-0.8984,-0.8984,-0.8982,-0.8976,-0.8973,-0.8981,-0.8982,-0.8983,-0.902,-0.8982,-0.8984,-0.8984,-0.9059,-0.906,-0.9062,0,0,0,0,0,0,-0.8969,-0.8972,-0.8995,-0.8983,-0.8985,-0.8979,-0.8987,-0.8985,-0.8989,-0.8984,-0.8982,-0.8981,-0.898,-0.8982,-0.9002,-0.902,-0.8984,-0.8985,-0.9057,-0.9059,-0.9061,-0.9094,0,0,0,0,0,0,-0.8968,-0.8972,-0.8984,-0.8983,-0.8986,-0.9015,-0.8988,-0.8986,-0.8991,-0.8989,-0.8989,-0.8987,-0.8979,-0.9001,-0.9004,-0.9021,-0.8986,-0.9056,-0.9058,-0.906,-0.9091,-0.9097,-0.9101,0,0,0,0,0,-0.8967,-0.8993,-0.8985,-0.8988,-0.9001,-0.9016,-0.9017,-0.9007,-0.8993,-0.9005,-0.9002,-0.8987,-0.9018,-0.9003,-0.9006,-0.9024,-0.9054,-0.9057,-0.906,-0.9089,-0.9096,-0.9101,0,0,0,0,0,0,-0.8995,-0.8992,-0.8983,-0.9009,-0.9013,-0.9011,-0.9026,-0.9015,-0.9022,-0.9019,-0.9006,-0.9007,-0.903,-0.9029,-0.9013,-0.9055,-0.9034,-0.9037,-0.9054,-0.9061,-0.9066,-0.9065,-0.8987,0,0,0,0,0,-0.9004,-0.9017,-0.9014,-0.9037,-0.9039,-0.9032,-0.9038,-0.9031,-0.9034,-0.9035,-0.9033,-0.9036,-0.9047,-0.9053,-0.9063,-0.9091,-0.9091,-0.9105,-0.911,-0.9114,-0.9118,-0.9133,-0.914,-0.9071,-0.9071,-0.9071,0,0,-0.9023,-0.9023,-0.9031,-0.9042,-0.9044,-0.9058,-0.9034,-0.9048,-0.9058,-0.9037,-0.9057,-0.9056,-0.9058,-0.9083,-0.9094,-0.9084,-0.9137,-0.9118,-0.9121,-0.9122,-0.9137,-0.9143,-0.9149,-0.9073,-0.9073,-0.9072,0,0,-0.9064,-0.9065,-0.9085,-0.9088,-0.9091,-0.9087,-0.9092,-0.9092,-0.9091,-0.911,-0.9095,-0.9106,-0.9124,-0.9127,-0.9131,-0.9175,-0.9162,-0.9178,-0.9204,-0.922,-0.9225,-0.923,-0.9246,-0.9252,-0.9181,-0.9181,-0.9181,0,-0.9087,-0.9106,-0.9097,-0.9113,-0.9118,-0.9101,-0.9121,-0.9124,-0.913,-0.9134,-0.9122,-0.9145,-0.9145,-0.9171,-0.9182,-0.9185,-0.9191,-0.9178,-0.9225,-0.923,-0.9234,-0.9249,-0.9255,-0.9183,-0.9183,-0.9183,-0.9183,0,-0.9135,-0.9149,-0.9164,-0.9172,-0.9179,-0.9197,-0.919,-0.9198,-0.919,-0.9187,-0.9208,-0.9208,-0.9217,-0.9223,-0.9215,-0.9248,-0.9241,-0.9228,-0.9206,-0.9243,-0.9257,-0.9263,-0.9186,-0.9185,-0.9185,-0.9184,0,0,-0.9192,-0.9195,-0.9201,-0.9205,-0.9208,-0.9218,-0.9236,-0.9246,-0.9253,-0.9258,-0.9273,-0.9289,-0.9277,-0.9281,-0.9274,-0.9287,-0.9323,-0.9272,-0.9272,-0.9282,-0.936,-0.937,-0.9377,-0.9315,-0.9316,-0.9316,-0.936,0,-0.9233,-0.9264,-0.9256,-0.9286,-0.9299,-0.9283,-0.9299,-0.9302,-0.93,-0.9311,-0.9308,-0.932,-0.9303,-0.9305,-0.9318,-0.9316,-0.9338,-0.9312,-0.9328,-0.9329,-0.9328,-0.9384,-0.9395,-0.9435,-0.9365,-0.9366,-0.9366,0,-0.9284,-0.9292,-0.9324,-0.9327,-0.9332,-0.9346,-0.9355,-0.9365,-0.9369,-0.9367,-0.9372,-0.9362,-0.938,-0.9359,-0.9383,-0.9365,-0.9371,-0.9371,-0.9372,-0.9373,-0.935,-0.9387,-0.9448,-0.9454,-0.9375,-0.9374,-0.9374,0,-0.9323,-0.9343,-0.9364,-0.9368,-0.9371,-0.9381,-0.9383,-0.9386,-0.9393,-0.94,-0.9405,-0.9414,-0.9419,-0.9427,-0.942,-0.9405,-0.9445,-0.9423,-0.9443,-0.9444,-0.9452,-0.9452,-0.9516,-0.9456,-0.9456,-0.9456,-0.9456,0,-0.937,-0.939,-0.9382,-0.9396,-0.9418,-0.9409,-0.9432,-0.9431,-0.9434,-0.9448,-0.9434,-0.9447,-0.9436,-0.9448,-0.9442,-0.9464,-0.9466,-0.9464,-0.9463,-0.9466,-0.9466,-0.9469,-0.9466,-0.9457,-0.9457,-0.9457,-0.9457,0,-0.9417,-0.9413,-0.9436,-0.9437,-0.9438,-0.9455,-0.9456,-0.9468,-0.9466,-0.9482,-0.9486,-0.9481,-0.9495,-0.9488,-0.9502,-0.9498,-0.9525,-0.952,-0.9524,-0.9523,-0.9544,-0.9542,-0.9612,-0.9621,-0.9556,-0.9556,-0.9557,0,-0.9447,-0.9462,-0.9466,-0.9474,-0.9477,-0.949,-0.9498,-0.949,-0.9498,-0.9504,-0.9516,-0.9528,-0.9538,-0.9559,-0.9557,-0.9568,-0.9562,-0.9586,-0.9564,-0.9567,-0.9563,-0.9562,-0.9564,-0.9591,-0.9591,-0.9592,-0.9592,0,-0.95,-0.9498,-0.9509,-0.952,-0.9529,-0.9537,-0.9544,-0.9551,-0.9544,-0.9553,-0.9567,-0.9575,-0.9589,-0.9602,-0.9611,-0.9612,-0.9601,-0.96,-0.9605,-0.9608,-0.961,-0.961,-0.9537,-0.9598,-0.9597,-0.9597,-0.9597,-0.9597,-0.954,-0.9553,-0.9558,-0.9572,-0.9576,-0.9583,-0.9595,-0.9595,-0.9606,-0.9618,-0.9613,-0.9629,-0.9633,-0.9645,-0.9648,-0.9661,-0.9651,-0.9659,-0.9661,-0.9663,-0.9666,-0.9609,-0.9662,-0.9662,-0.9662,-0.9662,-0.9662,0,-0.9593,-0.9596,-0.9608,-0.9619,-0.9629,-0.9619,-0.9626,-0.9636,-0.965,-0.9656,-0.9666,-0.9682,-0.9695,-0.9694,-0.9705,-0.9716,-0.9711,-0.9719,-0.9718,-0.9719,-0.9673,-0.9668,-0.9722,-0.9722,-0.9722,-0.9722,-0.9722,-0.9722,-0.9621,-0.9644,-0.9642,-0.9667,-0.967,-0.9686,-0.9691,-0.9698,-0.9702,-0.9722,-0.9732,-0.9732,-0.9735,-0.9747,-0.9758,-0.9757,-0.9762,-0.9772,-0.977,-0.9728,-0.9722,-0.9716,-0.9711,-0.9773,-0.9773,-0.9814,-0.9814,-0.9815]},{"header":{"parameterUnit":"m.s-1","parameterCategory":1,"la1":30.2991,"la2":30.254,"lo1":-89.0895,"lo2":-89.0444,"dy":0.0017,"dx":0.0017,"nx":28,"ny":28,"refTime":"2025-09-13T21:00:00:Z","depth":0,"parameterNumber":3,"parameterNumberName":"V-component_of_WINDS"},"data":[0,0,0,0,0,0,0,0,0,0,0,0,0,0,0,0,0,0,0,0,0,0,0,0,0,0,0,0,0,0,0,0,0,0,0,0,0,0,0,0,0,0,0,0,0,0,0,0,0,0,0,0,0,0,0,0,0,0,-0.8642,-0.8643,0,-0.868,-0.868,-0.8681,-0.8681,-0.868,-0.868,-0.868,-0.872,-0.8722,-0.8723,0,0,0,0,0,0,0,0,0,0,0,0,0,-0.8574,-0.8575,-0.8642,-0.8643,-0.8643,-0.868,-0.868,-0.8681,-0.8681,-0.868,-0.868,-0.8679,-0.872,-0.8722,-0.8724,0,0,0,0,0,0,0,0,0,0,0,0,0,-0.8607,-0.8576,-0.8642,-0.8648,-0.8649,-0.868,-0.868,-0.8681,-0.8681,-0.868,-0.868,-0.8679,-0.8719,-0.8722,-0.8724,-0.8753,0,0,-0.8731,-0.8732,0,0,0,0,0,0,0,0,-0.8605,-0.8609,-0.8646,-0.8647,-0.8648,-0.8675,-0.8671,-0.8705,-0.8681,-0.8669,-0.868,-0.8679,-0.8706,-0.8709,-0.8718,-0.8755,-0.8756,-0.8731,-0.8732,-0.8733,-0.8734,0,0,0,0,0,0,0,-0.8603,-0.8608,-0.8657,-0.8647,-0.8648,-0.8649,-0.8653,-0.8678,-0.8691,-0.867,-0.867,-0.8674,-0.8706,-0.8716,-0.8719,-0.8757,-0.8731,-0.8733,-0.8734,-0.8735,-0.8821,-0.8822,0,0,0,0,0,0,-0.8599,-0.8606,-0.8656,-0.8658,-0.8624,-0.8651,-0.8655,-0.8667,-0.8691,-0.8694,-0.8675,-0.8674,-0.8712,-0.8716,-0.8721,-0.8757,-0.8733,-0.8736,-0.8737,-0.882,-0.8821,-0.8822,0,0,0,0,0,0,-0.8597,-0.8603,-0.8654,-0.8632,-0.8639,-0.8653,-0.8666,-0.8668,-0.8678,-0.8695,-0.8697,-0.8682,-0.8712,-0.8717,-0.8745,-0.8758,-0.8737,-0.8739,-0.8819,-0.882,-0.8821,-0.8829,0,0,0,0,0,0,-0.8595,-0.8603,-0.8613,-0.8632,-0.864,-0.8677,-0.8667,-0.867,-0.8681,-0.8681,-0.8702,-0.8705,-0.8712,-0.8741,-0.8747,-0.8761,-0.8741,-0.8818,-0.8819,-0.8821,-0.8828,-0.8831,-0.8833,0,0,0,0,0,-0.8593,-0.8614,-0.8614,-0.862,-0.8653,-0.8678,-0.8682,-0.8689,-0.8682,-0.8694,-0.8705,-0.8704,-0.8756,-0.8744,-0.8751,-0.8765,-0.8817,-0.8819,-0.8821,-0.8827,-0.883,-0.8833,0,0,0,0,0,0,-0.8597,-0.8617,-0.8616,-0.8644,-0.8659,-0.8678,-0.8692,-0.8693,-0.8711,-0.871,-0.8718,-0.8723,-0.8751,-0.8761,-0.8748,-0.8795,-0.8786,-0.8789,-0.8788,-0.8791,-0.8794,-0.8791,-0.8742,0,0,0,0,0,-0.86,-0.8618,-0.8635,-0.8658,-0.8666,-0.8678,-0.8689,-0.8693,-0.8709,-0.8716,-0.8729,-0.8746,-0.8766,-0.8779,-0.8798,-0.8829,-0.8835,-0.8843,-0.8845,-0.8847,-0.885,-0.8869,-0.8873,-0.8828,-0.8828,-0.8828,0,0,-0.8609,-0.8622,-0.8633,-0.8659,-0.8671,-0.8691,-0.8683,-0.8703,-0.8718,-0.8719,-0.8746,-0.8757,-0.8776,-0.8806,-0.8819,-0.8815,-0.8864,-0.885,-0.8851,-0.8853,-0.8871,-0.8875,-0.8879,-0.883,-0.8829,-0.8829,0,0,-0.8634,-0.8645,-0.8666,-0.8679,-0.8697,-0.8705,-0.871,-0.8729,-0.8736,-0.8763,-0.8764,-0.8783,-0.8817,-0.8831,-0.8843,-0.8875,-0.8875,-0.8881,-0.8894,-0.8912,-0.8916,-0.8919,-0.8931,-0.8935,-0.8884,-0.8884,-0.8884,0,-0.8643,-0.8671,-0.8677,-0.8698,-0.871,-0.8711,-0.8733,-0.8745,-0.8769,-0.8778,-0.8773,-0.8817,-0.883,-0.8863,-0.8871,-0.888,-0.8887,-0.8878,-0.8915,-0.8918,-0.8921,-0.8933,-0.8937,-0.8884,-0.8884,-0.8884,-0.8884,0,-0.8681,-0.87,-0.8715,-0.8738,-0.8752,-0.8773,-0.8784,-0.8797,-0.88,-0.8809,-0.8838,-0.8853,-0.8877,-0.8885,-0.8888,-0.8919,-0.8916,-0.8912,-0.8903,-0.8926,-0.8937,-0.8942,-0.8885,-0.8885,-0.8885,-0.8885,0,0,-0.8709,-0.8735,-0.8741,-0.8752,-0.8773,-0.8789,-0.8811,-0.8833,-0.8845,-0.8862,-0.8881,-0.891,-0.8908,-0.8921,-0.8926,-0.8942,-0.8967,-0.8936,-0.8937,-0.8942,-0.9004,-0.9007,-0.9012,-0.8968,-0.8969,-0.8969,-0.9003,0,-0.8737,-0.8775,-0.8782,-0.8815,-0.8834,-0.8836,-0.8856,-0.8872,-0.8881,-0.8899,-0.891,-0.8931,-0.8925,-0.8933,-0.8949,-0.8961,-0.898,-0.8958,-0.8987,-0.8988,-0.8982,-0.9018,-0.9021,-0.9051,-0.9007,-0.9008,-0.9008,0,-0.8775,-0.8792,-0.8828,-0.8847,-0.8855,-0.8872,-0.8894,-0.8911,-0.893,-0.8935,-0.8951,-0.8954,-0.8979,-0.8968,-0.9002,-0.8987,-0.9,-0.9008,-0.9009,-0.9012,-0.9,-0.9023,-0.9061,-0.9066,-0.9015,-0.9015,-0.9014,0,-0.8793,-0.8825,-0.8851,-0.886,-0.8883,-0.8895,-0.8906,-0.8923,-0.8937,-0.8956,-0.8965,-0.8987,-0.8999,-0.9017,-0.9027,-0.9018,-0.9061,-0.905,-0.9067,-0.9067,-0.9076,-0.9076,-0.9118,-0.9083,-0.9083,-0.9083,-0.9083,0,-0.8824,-0.8846,-0.8859,-0.8875,-0.89,-0.8909,-0.8933,-0.8944,-0.896,-0.8979,-0.8982,-0.9,-0.9012,-0.9032,-0.904,-0.9068,-0.9073,-0.908,-0.9082,-0.908,-0.9079,-0.9088,-0.9086,-0.9084,-0.9084,-0.9084,-0.9084,0,-0.8848,-0.8858,-0.8886,-0.8906,-0.8912,-0.8929,-0.8947,-0.8963,-0.8972,-0.8996,-0.9003,-0.9018,-0.9042,-0.9053,-0.9083,-0.9089,-0.9121,-0.9121,-0.9114,-0.9115,-0.9132,-0.913,-0.9181,-0.9189,-0.9149,-0.9149,-0.9149,0,-0.8867,-0.8884,-0.8906,-0.8918,-0.8929,-0.8949,-0.8962,-0.8972,-0.8986,-0.9009,-0.9023,-0.9046,-0.9066,-0.9104,-0.9119,-0.9142,-0.9143,-0.916,-0.9147,-0.9145,-0.9145,-0.9144,-0.9146,-0.9162,-0.9163,-0.9163,-0.9163,0,-0.8901,-0.8905,-0.8924,-0.8945,-0.8961,-0.8978,-0.8995,-0.9006,-0.9018,-0.9034,-0.9058,-0.9073,-0.9103,-0.9128,-0.9152,-0.9164,-0.9166,-0.9167,-0.9172,-0.9171,-0.9166,-0.917,-0.9121,-0.9166,-0.9166,-0.9165,-0.9165,-0.9165,-0.8924,-0.894,-0.8957,-0.8978,-0.8992,-0.9008,-0.9025,-0.9036,-0.9056,-0.9081,-0.9086,-0.9112,-0.9131,-0.9164,-0.9177,-0.9198,-0.9195,-0.9202,-0.9204,-0.9206,-0.9207,-0.9163,-0.9203,-0.9202,-0.9202,-0.9202,-0.9202,0,-0.8959,-0.897,-0.899,-0.9013,-0.903,-0.903,-0.9049,-0.9064,-0.9086,-0.9104,-0.9123,-0.9151,-0.9175,-0.9192,-0.9216,-0.923,-0.9232,-0.9236,-0.9236,-0.9239,-0.9208,-0.9202,-0.9234,-0.9234,-0.9234,-0.9234,-0.9234,-0.9234,-0.8979,-0.9005,-0.9011,-0.9045,-0.9057,-0.9082,-0.9093,-0.9108,-0.9122,-0.9154,-0.9173,-0.9183,-0.9201,-0.9227,-0.9249,-0.9254,-0.9263,-0.9268,-0.9272,-0.9244,-0.924,-0.9237,-0.9231,-0.9269,-0.9269,-0.9301,-0.9301,-0.9301]}]]